Torna al catalogo

STARLINK-38140

AttivoComunicazioniSSO
NORAD 100182·PAYLOAD·🇺🇸 United States

Lanciato Aug 1, 2026 da Vandenberg Space Force Base

Loading…

Prossimi Passaggi (prossime 24 ore)

TLE

AggiornatoSource: Space-Track

Epoca: Sep 14, 2026, 02:21 UTC

1 A0182U 26175D   26257.09855983  .00159342  00000-0  10504-2 0  9997
2 A0182  97.2828  99.1419 0001680 105.2699 254.8752 15.75167534  8161

Traccia STARLINK-38140 in tempo reale con AllMySat

Download on the App Store